Location: Unspecified
(0.0000°N, 0.0000°E)
Time: 23:21:28
(UTC+00:00)

GONETS M 08 (M18) - Pass Details

Date: 20 May 2026
Orbit: 1470 x 1518 km, 82.5° (Epoch: 7 June)

Event Time Altitude Azimuth Distance (km) Brightness Sun altitude
Rises 04:32:53 0° 160° (SSE) 4,643 ? -19.6°
Reaches altitude 10° 04:36:19 10° 149° (SSE) 3,666 ? -18.8°
Maximum altitude 04:43:36 29° 93° (E) 2,502 ? -17.1°
Drops below altitude 10° 04:50:50 10° 37° (NE) 3,672 ? -15.4°
Sets 04:54:14 0° 27° (NNE) 4,651 ? -14.6°
